• En España
  • Lista de países
  • Para 7 días
  • Temperatura del agua
  • Mapa Satelital
  • El tiempo en el mapa
  • Informadores
  • user-avatar
    Iniciar sesión

    Tiempo cada hora Yumysh

    Hoy, 17 Agosto, Viernes

    Tiempo Temperatura Precipitaciones Viento Presión Humedad
    00:00 +14°C° 0 mm 3 mps 743 mmHg 96%
    01:00 +13°C° 0 mm 4 mps 743 mmHg 96%
    02:00 +13°C° 0 mm 4 mps 743 mmHg 96%
    03:00 +12°C° 0 mm 4 mps 744 mmHg 96%
    04:00 +12°C° 0 mm 4 mps 744 mmHg 96%
    05:00 +12°C° 0 mm 4 mps 745 mmHg 95%
    06:00 +11°C° 0 mm 4 mps 745 mmHg 94%
    07:00 +10°C° 0 mm 5 mps 746 mmHg 93%
    08:00 +12°C° 0 mm 5 mps 746 mmHg 84%
    09:00 +14°C° 0 mm 5 mps 747 mmHg 76%
    10:00 +15°C° 0 mm 5 mps 747 mmHg 67%
    11:00 +16°C° 0 mm 5 mps 747 mmHg 62%
    12:00 +17°C° 0 mm 5 mps 747 mmHg 57%
    13:00 +19°C° 0 mm 5 mps 748 mmHg 52%
    14:00 +19°C° 0 mm 5 mps 748 mmHg 52%
    15:00 +19°C° 0 mm 4 mps 748 mmHg 52%
    16:00 +19°C° 0 mm 4 mps 748 mmHg 52%
    17:00 +18°C° 0,1 mm 4 mps 748 mmHg 60%
    18:00 +16°C° 0,1 mm 3 mps 748 mmHg 68%
    19:00 +14°C° 0,1 mm 3 mps 748 mmHg 77%
    20:00 +13°C° 0 mm 2 mps 748 mmHg 82%
    21:00 +12°C° 0 mm 2 mps 749 mmHg 88%
    22:00 +10°C° 0 mm 2 mps 749 mmHg 93%
    23:00 +9°C° 0 mm 2 mps 749 mmHg 95%

    Mañana, 18 Agosto, Sábado

    Tiempo Temperatura Precipitaciones Viento Presión Humedad
    00:00 +9°C° 0 mm 2 mps 749 mmHg 96%
    01:00 +8°C° 0 mm 2 mps 749 mmHg 97%
    02:00 +8°C° 0 mm 2 mps 749 mmHg 97%
    03:00 +8°C° 0 mm 2 mps 750 mmHg 97%
    04:00 +7°C° 0 mm 2 mps 750 mmHg 97%
    05:00 +8°C° 0 mm 2 mps 750 mmHg 95%
    06:00 +9°C° 0 mm 3 mps 750 mmHg 93%
    07:00 +9°C° 0 mm 3 mps 750 mmHg 91%
    08:00 +11°C° 0 mm 3 mps 750 mmHg 83%
    09:00 +12°C° 0 mm 4 mps 751 mmHg 75%
    10:00 +14°C° 0 mm 4 mps 751 mmHg 67%
    11:00 +15°C° 0 mm 4 mps 751 mmHg 64%
    12:00 +15°C° 0 mm 4 mps 750 mmHg 61%
    13:00 +17°C° 0 mm 4 mps 750 mmHg 59%
    14:00 +17°C° 0 mm 4 mps 750 mmHg 58%
    15:00 +17°C° 0 mm 4 mps 750 mmHg 58%
    16:00 +17°C° 0 mm 4 mps 751 mmHg 57%
    17:00 +16°C° 0 mm 3 mps 751 mmHg 62%
    18:00 +14°C° 0 mm 3 mps 751 mmHg 68%
    19:00 +14°C° 0 mm 2 mps 751 mmHg 73%
    20:00 +12°C° 0 mm 2 mps 751 mmHg 77%
    21:00 +10°C° 0 mm 2 mps 751 mmHg 81%
    22:00 +9°C° 0 mm 2 mps 752 mmHg 85%
    23:00 +8°C° 0 mm 2 mps 752 mmHg 88%

    Pasado mañana, 19 Agosto, Domingo

    Tiempo Temperatura Precipitaciones Viento Presión Humedad
    00:00 +8°C° 0 mm 2 mps 752 mmHg 91%
    01:00 +7°C° 0 mm 2 mps 752 mmHg 94%
    02:00 +7°C° 0 mm 2 mps 752 mmHg 94%
    03:00 +6°C° 0 mm 2 mps 752 mmHg 95%
    04:00 +7°C° 0 mm 1 mps 752 mmHg 96%
    05:00 +8°C° 0 mm 1 mps 753 mmHg 93%
    06:00 +9°C° 0 mm 1 mps 753 mmHg 90%
    07:00 +10°C° 0 mm 1 mps 753 mmHg 87%
    08:00 +12°C° 0 mm 2 mps 753 mmHg 79%
    09:00 +14°C° 0 mm 2 mps 753 mmHg 72%
    10:00 +16°C° 0 mm 2 mps 753 mmHg 64%
    11:00 +17°C° 0 mm 2 mps 752 mmHg 60%
    12:00 +18°C° 0 mm 2 mps 752 mmHg 55%
    13:00 +19°C° 0 mm 2 mps 752 mmHg 51%
    14:00 +19°C° 0 mm 2 mps 751 mmHg 50%
    15:00 +19°C° 0 mm 2 mps 751 mmHg 50%
    16:00 +19°C° 0 mm 2 mps 751 mmHg 49%
    17:00 +19°C° 0 mm 1 mps 751 mmHg 56%
    18:00 +16°C° 0 mm 1 mps 751 mmHg 63%
    19:00 +14°C° 0 mm 0 mps 751 mmHg 70%
    20:00 +14°C° 0 mm 1 mps 751 mmHg 73%
    21:00 +12°C° 0 mm 1 mps 751 mmHg 77%
    22:00 +11°C° 0 mm 1 mps 751 mmHg 81%
    23:00 +11°C° 0 mm 1 mps 751 mmHg 82%

    20 Agosto, Lunes

    Tiempo Temperatura Precipitaciones Viento Presión Humedad
    00:00 +10°C° 0 mm 1 mps 751 mmHg 83%
    01:00 +10°C° 0 mm 1 mps 751 mmHg 85%
    02:00 +10°C° 0 mm 1 mps 751 mmHg 86%
    03:00 +10°C° 0 mm 1 mps 751 mmHg 87%
    04:00 +9°C° 0 mm 1 mps 750 mmHg 88%
    05:00 +10°C° 0 mm 1 mps 750 mmHg 85%
    06:00 +11°C° 0 mm 1 mps 750 mmHg 82%
    07:00 +13°C° 0 mm 1 mps 750 mmHg 79%
    08:00 +15°C° 0 mm 1 mps 750 mmHg 73%
    09:00 +18°C° 0 mm 1 mps 750 mmHg 68%
    10:00 +19°C° 0 mm 2 mps 750 mmHg 62%
    11:00 +20°C° 0 mm 2 mps 749 mmHg 60%
    12:00 +21°C° 0 mm 2 mps 749 mmHg 57%
    13:00 +23°C° 0 mm 2 mps 749 mmHg 54%
    14:00 +23°C° 0 mm 2 mps 748 mmHg 56%
    15:00 +23°C° 0 mm 2 mps 748 mmHg 57%
    16:00 +22°C° 0 mm 3 mps 748 mmHg 58%
    17:00 +20°C° 0 mm 2 mps 748 mmHg 65%
    18:00 +19°C° 0 mm 2 mps 748 mmHg 72%
    19:00 +18°C° 0 mm 2 mps 747 mmHg 79%
    20:00 +17°C° 0 mm 2 mps 747 mmHg 83%
    21:00 +15°C° 0 mm 2 mps 747 mmHg 86%
    22:00 +14°C° 0 mm 2 mps 747 mmHg 90%
    23:00 +14°C° 0 mm 2 mps 747 mmHg 90%

    21 Agosto, Martes

    Tiempo Temperatura Precipitaciones Viento Presión Humedad
    00:00 +14°C° 0 mm 2 mps 746 mmHg 90%
    01:00 +14°C° 0 mm 2 mps 746 mmHg 90%
    02:00 +14°C° 0,2 mm 2 mps 746 mmHg 92%
    03:00 +14°C° 0,2 mm 2 mps 746 mmHg 94%
    04:00 +14°C° 0,2 mm 2 mps 746 mmHg 95%
    05:00 +13°C° 0,7 mm 3 mps 745 mmHg 95%
    06:00 +13°C° 0,7 mm 3 mps 745 mmHg 96%
    07:00 +13°C° 0,7 mm 4 mps 745 mmHg 96%
    08:00 +14°C° 1,1 mm 4 mps 745 mmHg 96%
    09:00 +14°C° 1,1 mm 4 mps 745 mmHg 96%
    10:00 +15°C° 1,1 mm 4 mps 745 mmHg 96%
    11:00 +15°C° 0,2 mm 4 mps 745 mmHg 93%
    12:00 +17°C° 0,2 mm 4 mps 745 mmHg 91%
    13:00 +18°C° 0,2 mm 4 mps 744 mmHg 89%
    14:00 +18°C° 0,3 mm 3 mps 744 mmHg 86%
    15:00 +19°C° 0,3 mm 3 mps 744 mmHg 84%
    16:00 +19°C° 0,3 mm 3 mps 744 mmHg 82%
    17:00 +18°C° 0 mm 3 mps 744 mmHg 84%
    18:00 +18°C° 0 mm 2 mps 744 mmHg 87%
    19:00 +17°C° 0 mm 2 mps 744 mmHg 89%
    20:00 +16°C° 0 mm 2 mps 745 mmHg 91%
    21:00 +15°C° 0 mm 2 mps 745 mmHg 93%
    22:00 +14°C° 0 mm 2 mps 745 mmHg 95%
    23:00 +13°C° 0 mm 1 mps 745 mmHg 95%

    22 Agosto, Miércoles

    Tiempo Temperatura Precipitaciones Viento Presión Humedad
    00:00 +13°C° 0 mm 1 mps 745 mmHg 96%
    01:00 +13°C° 0 mm 1 mps 745 mmHg 96%
    02:00 +12°C° 0 mm 1 mps 745 mmHg 96%
    03:00 +12°C° 0 mm 1 mps 746 mmHg 96%
    04:00 +11°C° 0 mm 1 mps 746 mmHg 96%
    05:00 +12°C° 0 mm 1 mps 746 mmHg 94%
    06:00 +13°C° 0 mm 1 mps 746 mmHg 93%
    07:00 +13°C° 0 mm 1 mps 746 mmHg 91%
    08:00 +15°C° 0 mm 1 mps 746 mmHg 83%
    09:00 +18°C° 0 mm 1 mps 746 mmHg 75%
    10:00 +20°C° 0 mm 1 mps 746 mmHg 67%
    11:00 +21°C° 0 mm 1 mps 746 mmHg 60%
    12:00 +22°C° 0 mm 1 mps 745 mmHg 54%
    13:00 +23°C° 0 mm 1 mps 745 mmHg 48%
    14:00 +23°C° 0 mm 1 mps 745 mmHg 49%
    15:00 +22°C° 0 mm 1 mps 745 mmHg 49%
    16:00 +22°C° 0 mm 1 mps 744 mmHg 50%
    17:00 +19°C° 0 mm 0 mps 744 mmHg 56%
    18:00 +17°C° 0 mm 0 mps 744 mmHg 62%
    19:00 +16°C° 0 mm 0 mps 744 mmHg 67%
    20:00 +15°C° 0 mm 0 mps 744 mmHg 68%
    21:00 +15°C° 0 mm 1 mps 743 mmHg 70%
    22:00 +15°C° 0 mm 1 mps 743 mmHg 71%
    23:00 +14°C° 0 mm 1 mps 743 mmHg 73%
    Mostrar más